Temperature
17 17 17 17 17 17 18 18 18 18 17 17 17 17 16 16 16 16 16 16 16 16 16 15 15 15 15 15 15 15 14 14 14 14 14 14 14 14
16 16 17 17 17 17 17 17 17 17 17 17 17 16 16 16 16 16 15 15 15 15 15 15 15 15 15 15 14 14 14 14 14 14 14 14 13 13
16 16 16 16 16 17 17 17 17 17 17 16 16 16 16 15 15 15 15 15 15 15 15 14 14 14 14 14 14 14 14 13 13 13 13 13 13 13
16 16 16 16 16 16 16 16 16 16 16 16 15 15 15 15 14 14 14 14 14 14 14 14 14 13 13 13 13 13 13 13 13 12 12 12 12 12
15 15 15 15 15 15 15 16 15 15 15 15 15 14 14 14 14 13 13 13 13 13 13 13 13 12 12 12 12 12 12 12 12 11 11 11 11 11
15 15 15 15 15 15 15 15 15 15 14 14 14 13 13 13 13 13 12 12 12 12 12 12 11 11 11 11 11 11 11 10 10 10 10 10 10 10
14 14 14 14 14 14 14 14 14 14 13 13 13 13 12 12 12 12 11 11 11 11 11 11 10 10 10 10 10 10 10 9 9 9 9 9 9 9
14 13 13 13 13 13 13 13 13 13 13 12 12 11 11 11 11 10 10 10 10 10 10 10 10 9 9 9 9 9 8 8 8 8 8 8 8 8
13 13 13 12 12 12 12 12 12 12 11 11 11 11 10 10 10 10 9 9 9 9 9 9 8 8 8 8 8 8 8 7 7 7 7 7 7 7
12 12 12 12 11 11 11 11 11 11 10 10 10 9 9 9 9 9 8 8 8 8 8 8 7 7 7 7 7 7 7 7 6 6 6 6 6 6
11 11 11 11 11 10 10 10 10 9 9 9 9 8 8 8 8 8 8 7 7 7 7 7 6 6 6 6 6 6 6 6 6 6 6 5 5 5
10 10 10 10 10 9 9 9 9 8 8 8 8 7 7 7 7 7 7 6 6 6 6 6 5 5 5 6 5 5 5 5 5 5 5 5 5 5
10 9 9 9 9 8 8 8 8 7 7 7 7 6 6 6 6 6 6 6 5 5 5 5 4 4 4 4 4 5 5 5 5 5 5 5 4 4
9 9 8 8 8 8 7 7 7 7 6 6 6 6 6 6 5 5 5 5 5 5 5 4 4 4 3 3 4 4 4 4 4 4 4 4 4 4
8 8 7 7 7 7 7 6 6 6 6 6 5 5 5 5 5 5 4 4 4 4 4 4 4 4 3 3 3 3 4 4 4 4 3 3 3 3
7 7 7 6 6 6 6 6 6 5 5 5 5 5 5 4 4 4 4 4 4 4 4 4 3 3 3 3 3 3 3 3 3 3 3 3 3 3
7 6 6 6 6 5 5 5 5 5 5 4 4 4 4 4 4 4 4 4 3 3 3 3 3 3 3 3 3 3 3 3 3 3 3 3 3 3
6 6 6 6 5 5 5 5 5 4 4 4 4 4 4 4 4 3 3 3 3 3 3 3 3 3 3 3 3 2 2 2 2 2 2 2 2 2
6 6 6 5 5 5 5 5 4 4 4 4 4 4 3 3 3 3 3 3 3 2 3 3 2 2 2 2 2 2 2 2 2 2 2 2 2 2
6 6 5 5 5 5 4 4 4 4 4 4 3 3 3 3 3 3 3 2 2 2 2 2 2 2 2 2 2 2 2 2 2 2 2 2 2 2
6 6 5 5 5 4 4 4 4 4 4 3 3 3 3 3 3 2 2 2 2 2 2 2 2 2 2 2 2 2 2 2 2 2 2 2 2 2
6 6 5 5 5 4 4 4 4 4 3 3 3 3 2 2 2 2 2 2 2 2 2 2 2 2 2 2 2 2 2 2 2 2 2 2 2 2
6 5 5 5 4 4 4 4 4 3 3 3 3 2 2 2 2 2 2 2 2 2 2 2 2 2 2 2 2 2 2 2 2 2 2 2 2 2
Wind_Speed
4 4 3 2 3 3 2 1 1 2 2 0 1 3 6 8 9 8 7 8 8 7 6 5 3 2 2 1 0 0 0 1 1 2 3 4 5 5
2 2 2 2 2 2 1 1 1 0 1 1 2 3 5 6 9 9 8 9 8 7 7 5 5 4 4 3 3 3 3 3 3 3 4 5 5 6
3 3 2 1 1 2 2 1 2 1 1 2 3 4 4 4 5 5 7 8 7 8 8 7 7 7 6 6 6 6 6 5 5 5 5 6 6 7
2 1 1 1 1 2 3 3 3 3 3 3 3 3 4 3 2 2 5 6 7 9 9 8 8 8 8 7 7 6 6 6 6 6 6 7 7 8
4 3 3 3 3 3 4 4 4 4 4 4 3 3 4 4 3 3 5 4 5 7 7 7 6 6 6 6 6 6 6 5 5 5 6 7 8 9
7 8 8 7 6 5 5 5 5 6 5 5 5 4 4 4 4 4 4 4 4 3 4 3 3 4 4 5 4 4 4 4 4 4 5 7 8 10
11 11 11 14 15 11 8 7 7 6 6 6 6 5 5 5 5 4 4 3 4 5 3 2 1 2 2 3 3 3 2 2 3 4 6 7 9 10
11 10 11 12 16 18 19 17 13 9 7 6 6 6 6 5 5 5 4 4 3 4 4 4 3 2 1 1 4 5 3 2 3 5 6 8 10 11
10 9 9 10 11 10 15 17 17 18 14 9 9 7 5 5 5 5 4 3 2 3 2 3 3 3 5 2 3 4 5 5 6 7 9 10 11 13
10 9 9 9 9 10 11 12 11 11 11 9 8 7 6 4 4 4 3 3 2 3 4 3 4 4 6 5 5 6 6 8 10 12 12 13 14 15
10 10 10 10 11 12 11 11 10 8 12 13 12 10 10 10 10 6 6 5 4 4 5 4 4 5 4 2 5 5 9 12 14 15 16 17 18 16
10 10 13 11 11 10 9 8 8 5 4 5 5 5 6 7 8 7 5 5 4 3 5 5 5 5 4 4 6 9 10 12 14 16 16 17 17 12
9 8 8 11 11 11 8 7 5 3 3 4 4 4 4 5 6 8 6 3 3 3 4 4 4 4 4 5 6 7 9 10 11 12 13 14 15 12
9 8 8 11 11 10 7 6 6 4 3 4 5 5 5 4 3 5 4 3 2 3 4 3 3 4 5 7 7 6 7 10 9 6 10 13 14 15
9 12 11 10 9 7 8 7 5 4 4 5 5 4 4 3 3 4 5 6 6 5 4 4 3 4 4 6 6 6 7 6 6 5 6 6 8 9
10 10 9 7 5 5 5 4 3 5 5 5 4 4 3 3 4 4 4 4 4 3 6 9 8 4 5 6 6 7 6 5 5 5 5 6 10 12
7 5 5 4 4 4 4 4 4 5 5 4 4 4 4 4 4 4 4 4 4 5 5 4 10 11 8 6 6 6 6 6 6 6 7 7 6 7
6 5 5 5 5 5 4 4 4 4 4 4 4 4 4 4 4 4 4 4 5 5 5 5 5 5 6 5 5 6 6 7 7 7 7 7 6 6
4 5 5 5 5 4 4 4 4 4 3 3 3 4 4 4 4 4 4 4 5 5 5 5 5 6 8 9 8 10 8 7 6 6 7 7 7 7
3 5 5 5 4 4 4 4 4 3 3 3 3 4 4 4 4 4 4 5 5 6 5 5 5 5 6 8 8 9 12 7 6 7 7 7 6 8
5 5 4 4 5 5 4 3 2 2 3 3 3 3 3 3 4 5 5 6 6 5 6 6 5 9 6 5 7 6 7 13 12 8 8 7 7 6
4 5 5 5 4 4 2 2 2 2 2 3 3 3 4 4 4 5 5 6 6 6 7 6 6 6 6 7 8 9 8 9 13 15 13 11 6 6
4 4 4 4 4 3 2 1 2 2 3 3 3 3 4 4 4 4 5 6 6 7 7 7 6 6 7 7 8 8 10 10 7 7 8 14 16 19
Wind_Direction
219 215 229 261 273 292 306 314 213 225 243 195 81 75 99 107 125 127 118 139 145 145 147 149 144 138 137 149 128 87 334 332 343 343 337 332 325 321
206 207 214 264 291 280 299 330 338 206 178 115 87 74 71 106 112 114 114 119 126 126 122 119 113 105 99 93 89 79 64 51 37 25 11 359 349 341
214 187 185 240 338 338 9 7 359 38 119 105 83 66 67 73 97 117 125 114 107 114 115 113 109 102 97 92 87 81 71 58 43 29 18 8 358 348
173 125 144 181 113 354 13 22 37 50 88 107 94 82 69 68 70 88 101 108 111 112 112 113 112 110 106 102 96 87 77 63 45 29 17 6 356 346
92 78 65 64 58 47 39 32 33 46 71 95 85 69 65 48 40 47 63 67 96 116 118 120 123 125 124 113 103 90 79 63 45 29 15 2 350 342
75 71 65 63 60 56 53 41 51 58 68 82 80 68 54 32 35 28 34 20 26 55 70 116 147 143 139 131 118 100 82 62 37 13 357 347 340 334
78 74 74 75 70 67 67 51 51 59 70 79 80 70 51 35 23 8 22 10 16 25 17 15 137 158 160 171 164 152 125 66 7 343 333 328 325 322
93 86 81 78 78 75 72 66 62 65 69 72 73 69 53 34 14 19 18 6 4 6 356 340 8 16 354 168 171 182 195 251 302 308 308 309 311 312
95 92 88 81 79 83 77 70 63 62 68 80 77 67 55 27 8 15 11 353 319 313 337 336 360 7 359 26 193 214 236 259 275 282 288 293 296 300
88 91 92 83 79 85 86 78 68 58 65 75 81 74 67 35 11 4 340 333 342 4 13 356 359 351 338 318 257 242 262 270 276 279 280 282 285 291
85 79 84 84 78 85 91 92 88 79 76 87 94 92 76 54 35 25 15 12 10 20 20 4 351 339 323 322 341 279 283 284 284 282 281 281 284 290
90 80 74 77 75 79 89 92 89 85 88 89 93 82 75 59 50 42 28 14 3 5 16 1 350 346 326 334 345 318 305 306 302 296 290 288 288 287
99 91 81 77 74 71 76 83 87 85 91 87 87 80 65 58 50 43 36 21 9 349 348 354 337 338 325 318 318 318 321 318 314 311 311 304 299 287
105 103 96 86 78 70 67 58 54 60 73 73 69 59 54 44 29 18 14 352 302 272 295 321 315 322 320 316 316 318 319 317 318 321 328 326 316 306
102 106 105 97 86 80 75 64 53 49 56 60 57 51 46 29 9 8 2 349 334 337 354 333 306 308 305 305 311 314 315 316 330 336 335 332 322 311
106 107 103 90 79 74 77 72 64 54 50 48 42 35 24 19 21 16 3 349 347 346 352 345 329 305 300 299 302 306 316 321 328 326 327 315 309 309
118 121 118 110 106 101 88 75 69 60 48 36 34 30 24 22 16 9 1 350 353 349 344 334 336 328 313 313 321 326 327 324 322 321 317 310 306 313
115 121 116 111 105 99 92 84 72 56 39 34 35 29 21 14 7 360 0 359 355 347 337 330 333 334 333 327 327 329 326 322 317 311 309 312 310 312
116 113 105 99 94 91 82 78 76 66 38 29 32 27 14 8 9 1 359 360 347 332 326 331 344 347 338 331 326 324 313 309 308 309 308 307 305 303
124 110 108 104 93 79 72 67 66 59 42 30 31 23 13 4 2 352 350 351 333 324 331 338 346 343 325 313 308 307 309 307 309 308 308 305 301 303
120 110 105 101 93 86 79 68 66 61 41 30 33 14 0 356 355 343 342 342 331 330 338 334 325 316 296 299 309 312 308 313 307 296 299 304 307 308
113 112 105 101 101 99 92 75 69 64 41 27 29 5 355 350 342 336 340 338 332 334 332 324 320 320 317 319 320 319 317 316 313 308 299 291 289 298
113 114 120 124 124 128 104 68 53 61 47 28 16 356 347 341 332 332 334 332 330 329 328 329 329 324 321 319 321 320 321 323 323 320 309 304 293 285
Height
1553 1555 1556 1558 1559 1560 1561 1562 1564 1563 1564 1565 1565 1566 1566 1567 1567 1567 1568 1568 1569 1569 1570 1570 1570 1570 1571 1571 1571 1571 1570 1570 1570 1570 1569 1569 1568 1568
1550 1552 1553 1555 1556 1558 1559 1560 1561 1562 1562 1563 1563 1563 1564 1565 1565 1565 1565 1566 1566 1566 1567 1567 1567 1567 1567 1567 1567 1567 1567 1566 1566 1565 1565 1564 1564 1563
1547 1549 1550 1552 1553 1554 1556 1557 1558 1559 1559 1561 1561 1562 1562 1562 1563 1563 1563 1563 1563 1563 1563 1564 1564 1564 1564 1563 1563 1563 1562 1562 1561 1561 1560 1559 1559 1558
1545 1546 1548 1549 1551 1552 1553 1555 1556 1556 1557 1558 1559 1560 1560 1561 1561 1561 1561 1561 1560 1560 1560 1560 1560 1560 1560 1559 1559 1559 1558 1558 1557 1556 1555 1554 1553 1552
1543 1544 1545 1547 1548 1550 1551 1552 1553 1554 1554 1556 1556 1557 1558 1558 1559 1559 1559 1559 1558 1558 1557 1557 1557 1557 1556 1556 1555 1555 1554 1553 1552 1551 1550 1549 1548 1546
1541 1542 1543 1545 1546 1548 1549 1550 1551 1552 1552 1553 1554 1555 1556 1556 1557 1557 1557 1557 1556 1556 1555 1554 1554 1554 1553 1552 1552 1551 1550 1548 1547 1546 1545 1543 1542 1541
1539 1540 1542 1543 1545 1546 1547 1548 1549 1550 1551 1552 1553 1553 1554 1554 1555 1555 1555 1554 1554 1554 1553 1552 1552 1551 1550 1549 1548 1547 1545 1544 1543 1542 1540 1538 1536 1535
1537 1539 1540 1542 1543 1545 1546 1547 1548 1548 1549 1550 1551 1552 1552 1553 1553 1553 1553 1553 1552 1552 1551 1551 1550 1549 1547 1546 1545 1544 1542 1541 1539 1537 1535 1533 1531 1529
1536 1538 1539 1541 1542 1544 1544 1546 1547 1547 1549 1550 1550 1551 1551 1552 1552 1551 1551 1551 1551 1550 1549 1549 1548 1547 1545 1544 1543 1541 1539 1538 1536 1534 1531 1529 1527 1524
1535 1537 1539 1541 1542 1543 1544 1545 1546 1547 1548 1549 1550 1550 1551 1551 1551 1551 1550 1550 1550 1549 1548 1547 1546 1544 1543 1542 1540 1539 1537 1535 1533 1530 1528 1526 1523 1520
1535 1537 1539 1540 1541 1543 1544 1545 1546 1547 1548 1549 1550 1550 1550 1551 1550 1550 1549 1549 1548 1548 1547 1546 1544 1542 1541 1540 1538 1536 1534 1532 1530 1528 1525 1522 1519 1516
1535 1537 1539 1541 1542 1543 1544 1545 1546 1548 1549 1550 1551 1551 1551 1551 1550 1550 1549 1548 1548 1547 1545 1544 1542 1540 1538 1537 1535 1533 1532 1529 1527 1524 1522 1519 1516 1513
1535 1538 1540 1542 1543 1545 1546 1547 1548 1549 1550 1551 1551 1551 1552 1552 1551 1550 1549 1549 1547 1546 1545 1543 1541 1540 1538 1535 1533 1531 1529 1526 1524 1521 1519 1516 1513 1510
1537 1539 1541 1544 1545 1546 1547 1548 1550 1550 1551 1552 1552 1552 1552 1552 1551 1550 1549 1548 1547 1546 1544 1543 1541 1539 1536 1533 1530 1528 1526 1523 1521 1518 1515 1512 1509 1507
1539 1541 1543 1545 1546 1548 1549 1550 1551 1551 1552 1553 1553 1553 1553 1552 1552 1551 1550 1548 1547 1546 1544 1542 1540 1537 1535 1532 1529 1526 1523 1521 1518 1515 1512 1509 1506 1503
1541 1543 1545 1547 1549 1550 1551 1552 1553 1553 1553 1554 1554 1554 1553 1553 1552 1551 1549 1548 1547 1545 1544 1541 1539 1536 1533 1530 1528 1524 1522 1519 1516 1512 1509 1506 1502 1500
1543 1546 1548 1550 1551 1553 1554 1554 1555 1555 1555 1555 1555 1555 1554 1553 1552 1551 1549 1548 1546 1544 1542 1540 1538 1535 1532 1529 1526 1523 1520 1516 1513 1510 1506 1502 1499 1496
1547 1549 1551 1552 1554 1555 1556 1556 1557 1556 1557 1557 1556 1556 1555 1554 1553 1551 1550 1548 1546 1544 1541 1539 1536 1532 1530 1527 1526 1521 1517 1514 1510 1507 1503 1499 1495 1492
1550 1552 1554 1555 1556 1557 1558 1558 1558 1558 1558 1557 1557 1556 1555 1554 1553 1551 1550 1548 1545 1543 1541 1538 1535 1532 1528 1524 1521 1520 1515 1511 1507 1504 1500 1497 1492 1489
1552 1554 1556 1557 1558 1559 1559 1559 1559 1559 1558 1558 1557 1556 1555 1554 1553 1551 1549 1547 1545 1542 1540 1538 1535 1531 1528 1524 1520 1516 1514 1510 1506 1501 1497 1494 1490 1486
1555 1556 1557 1558 1559 1559 1559 1560 1560 1559 1559 1558 1557 1556 1555 1554 1553 1551 1549 1547 1544 1542 1539 1536 1534 1531 1527 1523 1519 1515 1512 1508 1505 1500 1495 1491 1486 1482
1556 1557 1558 1559 1559 1559 1560 1560 1560 1559 1559 1558 1557 1556 1555 1554 1552 1550 1548 1546 1544 1541 1538 1535 1532 1529 1525 1522 1518 1513 1509 1505 1502 1498 1494 1490 1486 1480
1557 1558 1558 1559 1559 1560 1560 1560 1560 1559 1558 1558 1557 1555 1554 1553 1551 1550 1548 1545 1543 1540 1537 1534 1530 1527 1524 1520 1516 1512 1508 1503 1499 1495 1491 1488 1484 1479